DW3795 Weather Reports


Display with metric or nautical units.
time (UTC)temp
F
wind
direction
speed
MPH
gust
MPH
rain 1hr
in
rain 24hr
in
rain mn
in
humidity
%
barometer
mb
20260510164559 84 328 1.0 8.0 0.00 0.00 0.00 35 1014.8
20260510163050 84 280 2.0 7.0 0.00 0.00 0.00 34 1015.0
20260510161552 84 223 2.0 9.0 0.00 0.00 0.00 36 1015.2
20260510160057 84 331 3.0 6.0 0.00 0.00 0.00 40 1015.4
20260510154551 82 5 1.0 6.0 0.00 0.00 0.00 40 1015.3
20260510153038 81 195 0.0 4.0 0.00 0.00 0.00 47 1015.3
20260510151534 80 292 1.0 5.0 0.00 0.00 0.00 47 1015.3
20260510150030 79 15 0.0 3.0 0.00 0.00 0.00 52 1015.3
20260510144527 77 260 1.0 4.0 0.00 0.00 0.00 54 1015.3
20260510143022 75 337 1.0 3.0 0.00 0.00 0.00 60 1015.4
20260510141517 72 310 0.0 5.0 0.00 0.00 0.00 62 1015.4
20260510140013 70 312 1.0 5.0 0.00 0.00 0.00 68 1015.5
20260510134509 66 10 1.0 3.0 0.00 0.00 0.00 78 1015.4
20260510133004 63 312 1.0 4.0 0.00 0.00 0.00 91 1015.3
20260510131501 61 242 0.0 3.0 0.00 0.00 0.00 94 1015.5
20260510130059 60 238 1.0 3.0 0.00 0.00 0.00 95 1015.6
20260510124610 59 217 0.0 2.0 0.00 0.00 0.00 95 1015.5
20260510123055 58 10 0.0 1.0 0.00 0.00 0.00 95 1015.5
20260510121552 56 10 0.0 1.0 0.00 0.00 0.00 95 1015.3
20260510120051 55 217 0.0 0.0 0.00 0.00 0.00 94 1015.0
20260510114548 53 217 0.0 0.0 0.00 0.00 0.00 94 1014.7
20260510113056 53 10 0.0 0.0 0.00 0.00 0.00 93 1014.7
20260510111602 53 217 0.0 0.0 0.00 0.00 0.00 93 1014.4
20260510110042 53 217 0.0 0.0 0.00 0.00 0.00 92 1014.1
20260510104551 53 217 0.0 0.0 0.00 0.00 0.00 92 1013.8
20260510103039 53 217 0.0 0.0 0.00 0.00 0.00 92 1013.7
20260510101538 54 217 0.0 0.0 0.00 0.00 0.00 92 1013.4
20260510100035 54 217 0.0 0.0 0.00 0.00 0.00 92 1013.3
20260510094531 55 217 0.0 0.0 0.00 0.00 0.00 92 1013.2
20260510093028 55 217 0.0 0.0 0.00 0.00 0.00 92 1013.2
20260510091546 55 217 0.0 1.0 0.00 0.00 0.00 92 1013.1
20260510090025 56 217 0.0 0.0 0.00 0.00 0.00 92 1012.8
20260510084525 56 217 0.0 0.0 0.00 0.00 0.00 92 1012.5
20260510083021 57 217 0.0 0.0 0.00 0.00 0.00 92 1012.4
20260510081532 57 216 0.0 0.0 0.00 0.00 0.00 92 1012.2
20260510080020 57 216 0.0 0.0 0.00 0.00 0.00 92 1012.0
20260510074517 58 216 0.0 1.0 0.00 0.00 0.00 92 1011.9
20260510073024 58 216 0.0 3.0 0.00 0.00 0.00 92 1011.9
20260510071517 58 173 3.0 6.0 0.00 0.00 0.00 92 1011.9
20260510070021 58 220 0.0 0.0 0.00 0.00 0.00 92 1011.5
20260510064539 58 220 0.0 0.0 0.00 0.00 0.00 91 1011.8
20260510063017 58 220 0.0 0.0 0.00 0.00 0.00 91 1011.8
20260510061512 58 220 0.0 0.0 0.00 0.00 0.00 91 1011.9
20260510060023 59 220 0.0 0.0 0.00 0.00 0.00 90 1012.0
20260510054505 59 220 0.0 0.0 0.00 0.00 0.00 90 1012.3
20260510053002 60 220 0.0 0.0 0.00 0.00 0.00 90 1012.3
20260510051610 60 220 0.0 0.0 0.00 0.00 0.00 90 1012.5
20260510050117 60 220 0.0 0.0 0.00 0.00 0.00 89 1012.3
20260510044609 61 220 0.0 0.0 0.00 0.00 0.00 89 1012.3
20260510043056 61 220 0.0 0.0 0.00 0.00 0.00 89 1012.2
20260510041606 61 220 0.0 0.0 0.00 0.00 0.00 88 1012.3
20260510040053 62 220 0.0 0.0 0.00 0.00 0.00 88 1012.3
20260510034558 62 220 0.0 1.0 0.00 0.00 0.00 87 1012.2
20260510033051 62 220 0.0 1.0 0.00 0.00 0.00 86 1012.2
20260510031557 63 220 0.0 0.0 0.00 0.00 0.00 85 1012.1
20260510030057 63 220 0.0 1.0 0.00 0.00 0.00 85 1012.0
20260510024552 64 220 0.0 1.0 0.00 0.00 0.00 83 1011.9
20260510023048 65 219 0.0 2.0 0.00 0.00 0.00 82 1011.8
20260510021548 65 219 0.0 2.0 0.00 0.00 0.00 81 1011.7
20260510020048 66 215 0.0 4.0 0.00 0.00 0.00 80 1011.5
20260510014546 67 199 0.0 3.0 0.00 0.00 0.00 78 1011.1
20260510013052 67 180 2.0 5.0 0.00 0.00 0.00 77 1010.9
20260510011546 68 202 1.0 3.0 0.00 0.00 0.00 75 1010.6
20260510010045 69 202 1.0 6.0 0.00 0.00 0.00 74 1010.4
20260510004545 70 225 0.0 4.0 0.00 0.00 0.00 72 1010.2
20260510003053 71 247 0.0 3.0 0.00 0.00 0.00 70 1010.2
20260510001542 71 200 0.0 2.0 0.00 0.00 0.00 69 1010.2
20260510000042 72 208 0.0 6.0 0.00 0.00 0.00 68 1009.9
20260509234557 73 252 4.0 8.0 0.00 0.00 0.00 66 1009.6
20260509233046 73 211 4.0 11.0 0.00 0.00 0.00 64 1009.7
20260509231600 74 238 1.0 8.0 0.00 0.00 0.00 63 1009.3
20260509230040 74 166 2.0 15.0 0.00 0.00 0.00 62 1009.2
20260509224541 74 235 2.0 8.0 0.00 0.00 0.00 63 1009.2
20260509223039 75 194 1.0 6.0 0.00 0.00 0.00 63 1009.1
20260509221540 75 223 2.0 9.0 0.00 0.00 0.00 61 1009.3
20260509220039 76 171 3.0 12.0 0.00 0.00 0.00 60 1009.1
20260509214537 76 228 2.0 13.0 0.00 0.00 0.00 58 1009.1
20260509213036 77 194 2.0 8.0 0.00 0.00 0.00 58 1009.0
20260509211535 78 142 2.0 12.0 0.00 0.00 0.00 57 1008.7
20260509210038 78 260 4.0 11.0 0.00 0.00 0.00 56 1008.9
20260509204535 79 249 2.0 8.0 0.00 0.00 0.00 56 1008.8
20260509203036 78 219 1.0 8.0 0.00 0.00 0.00 58 1009.0
20260509201526 76 331 3.0 11.0 0.00 0.00 0.00 61 1009.0
20260509200025 75 108 5.0 8.0 0.00 0.00 0.00 62 1009.2
20260509194526 75 244 3.0 11.0 0.00 0.00 0.00 61 1009.4
20260509193022 75 119 2.0 7.0 0.00 0.00 0.00 62 1009.3
20260509191523 74 121 2.0 9.0 0.00 0.00 0.00 61 1009.6
20260509190021 75 152 3.0 8.0 0.00 0.00 0.00 60 1009.7
20260509184529 75 180 5.0 12.0 0.00 0.00 0.00 60 1009.8
20260509183028 76 225 6.0 11.0 0.00 0.00 0.00 55 1009.9
20260509181519 75 184 6.0 10.0 0.00 0.00 0.00 57 1010.4
20260509180019 76 294 5.0 13.0 0.00 0.00 0.00 55 1010.5
20260509174511 74 184 6.0 14.0 0.00 0.00 0.00 59 1010.5
20260509173016 74 277 3.0 9.0 0.00 0.00 0.00 59 1010.6
20260509171520 74 190 3.0 12.0 0.00 0.00 0.00 59 1010.8
20260509170008 73 159 5.0 18.0 0.00 0.00 0.00 59 1010.9